• Join FlightAware (Why Join?)
  • Login
  • US Flag GB Flag 
12:31 EDT


 

Airport Tracker/Info


-or-


 

Live Flight TrackerFlight Track Log ✈ ASQ4504 ✈ 20-Apr-2013 ✈ MMDO / DGO - KLAX

Flight Track Log - Related Links

Times and Time Zones

All times are in EDT time to prevent confusion due to time zone crossing. See the ASQ4504 flight status page for this flight to view local times or setup timezone preferences in your user account.

Time Position Orientation Groundspeed Altitude Reporting Facility
EDT Latitude Longitude Course Direction KTS MPH feet Rate Location/Type
00:02 32.1467 -114.7128 302° West 387 445 36,000  Level Los Angeles Center
00:03 32.2042 -114.8211 302° West 389 448 36,000  Level Los Angeles Center
00:04 32.2614 -114.9294 302° West 388 447 36,000  Level Los Angeles Center
00:05 32.3211 -115.0372 303° West 390 449 36,000  Level Los Angeles Center
00:06 32.3911 -115.1664 303° West 389 448 36,000  Level Los Angeles Center
00:07 32.4456 -115.2697 302° West 389 448 36,000  Level Los Angeles Center
00:08 32.5036 -115.3772 303° West 388 447 36,000  Level Los Angeles Center
00:09 32.5625 -115.4844 303° West 389 448 36,000  Level Los Angeles Center
00:10 32.6194 -115.5925 302° West 388 447 36,000  Level Los Angeles Center
00:11 32.6772 -115.7017 302° West 390 449 36,000  Level Los Angeles Center
00:12 32.7347 -115.8111 302° West 391 450 36,000 -300 Level Los Angeles Center
00:13 32.8047 -115.9411 303° West 392 451 35,400 -1,200 Descending Los Angeles Center
00:14 32.8614 -116.0489 302° West 386 444 33,600 -1,920 Descending Los Angeles Center
00:15 32.9181 -116.1561 302° West 385 443 31,600 -1,980 Descending Los Angeles Center
00:16 32.9753 -116.2656 302° West 400 460 29,600 -2,100 Descending Los Angeles Center
00:17 33.0322 -116.3828 300° West 408 470 27,400 -2,340 Descending Los Angeles Center
00:18 33.0933 -116.4919 304° West 404 465 24,900 -1,980 Descending Los Angeles Center
00:19 33.1436 -116.6089 297° West 408 470 23,400 -2,220 Descending Los Angeles Center
00:20 33.1631 -116.7656 278° West 408 470 20,400 -2,700 Descending Los Angeles Center
00:21 33.1792 -116.8953 278° West 400 460 18,000 -2,220 Descending Los Angeles Center
00:22 33.1931 -117.0200 278° West 387 445 15,900 -1,980 Descending Los Angeles Center
00:23 33.2083 -117.1422 279° West 377 434 14,000 -1,860 Descending Los Angeles Center
00:24 33.2167 -117.2167 278° West 364 419 13,000 -1,260 Descending Southern California TRACON
00:25 33.2333 -117.3333 280° West 410 472 12,100 -480 Descending Southern California TRACON
00:26 33.2500 -117.4500 280° West 368 423 12,100 -60 Level Southern California TRACON
00:27 33.3167 -117.5500 309° West 360 414 12,000 -60 Descending Southern California TRACON
00:28 33.3833 -117.6167 320° Northwest 351 404 12,000 60 Level Southern California TRACON
00:29 33.4169 -117.6575 315° West 354 407 12,100 -540 Climbing Los Angeles Center
00:29 33.4500 -117.7000 313° West 341 392 11,500 -1,320 Descending Southern California TRACON
00:30 33.5167 -117.7667 320° Northwest 295 339 10,000 -1,380 Descending Southern California TRACON
00:31 33.5833 -117.8333 320° Northwest 285 328 8,700 -1,380 Descending Southern California TRACON
00:32 33.6333 -117.9000 312° West 289 333 7,400 -900 Descending Southern California TRACON
00:33 33.7000 -117.9667 320° Northwest 282 325 7,000 -240 Descending Southern California TRACON
00:34 33.7500 -118.0167 320° Northwest 243 280 7,000  Level Southern California TRACON
00:35 33.8000 -118.0500 331° Northwest 233 268 7,000 -480 Level Southern California TRACON
00:36 33.8667 -118.0667 348° North 200 230 6,000 -1,140 Descending Southern California TRACON
00:37 33.9167 -118.0833 345° North 199 229 4,800 -900 Descending Southern California TRACON
00:38 33.9333 -118.1333 292° West 194 223 4,200 -660 Descending Southern California TRACON
00:39 33.9483 -118.1656 299° West 192 221 3,800 -960 Descending Los Angeles Center
00:40 33.9556 -118.2200 279° West 176 203 2,700 -900 Descending Los Angeles Center
00:41 33.9492 -118.2692 261° West 160 184 2,000 -780 Descending Los Angeles Center
00:42 33.9456 -118.3142 264° West 146 168 1,200 -780 Descending Los Angeles Center
00:43 33.9406 -118.3594 262° West 141 162 500 -600 Descending Los Angeles Center
00:44 33.9356 -118.4089 263° West 137 158 100 -420 Descending Los Angeles Center
00:46 33.9333 -118.4000 296° West  Level FlightAware Approximate